Location: Goheenville
(40.9070°N, 79.3720°W)
Time: 01:20:56
(UTC-04:00)

Cosmos 1727 Rocket - Visible Passes

Search period start: 29 March 2017 00:00
Search period end: 08 April 2017 00:00
Orbit: 960 x 997 km, 82.9° (Epoch: 27 March)

Date Brightness Start Highest point End Pass type
(mag) Time Alt. Az. Time Alt. Az. Time Alt. Az.
30 Mar 6.9 20:03:30 10° NW 20:07:58 21° W 20:12:26 10° SW visible
31 Mar 7.0 06:04:09 10° ESE 06:08:07 18° E 06:12:05 10° NE visible
31 Mar 7.6 20:32:39 10° WNW 20:33:48 11° WNW 20:34:57 10° W visible
01 Apr 6.1 06:28:36 10° SSE 06:34:05 33° E 06:39:34 10° NNE visible
03 Apr 7.0 05:38:21 10° ESE 05:41:53 16° E 05:45:25 10° NE visible
04 Apr 6.2 06:02:32 10° SE 06:07:49 30° E 06:13:05 10° NNE visible
06 Apr 6.9 05:12:38 10° ESE 05:15:39 14° E 05:18:39 10° NE visible
07 Apr 6.3 05:36:29 10° SE 05:41:34 27° E 05:46:36 10° NNE visible
